Skip Page Navigation
NASA JPL Caltech
NASA Logo - Jet Propulsion Laboratory + View the NASA Portal
+ Center for Near-Earth Object Studies
JPL Home Earth Solar System Stars & Galaxies Technology
JPL Solar System Dynamics
BODIES ORBITS EPHEMERIDES TOOLS PHYSICAL DATA DISCOVERY FAQ SITE MAP

Significant website upgrade scheduled for September 27. More details available here.

JPL Small-Body Database Browser
Search: [ help ]  
(2013 YT102)
Classification: Apollo [NEO]          SPK-ID: 3655732
Ephemeris | Orbit Diagram | Orbital Elements | Mission Design | Physical Parameters | Close-Approach Data ]

[ show orbit diagram ]
Orbital Elements at Epoch 2459396.5 (2021-Jul-01.0) TDB
Reference: JPL 13 (heliocentric ecliptic J2000)
 Element Value Uncertainty (1-sigma)   Units 
e .2092533850063626 2.9517e-06  
a 1.013009839576896 2.6998e-07 au
q .8010341016006784 2.7826e-06 au
i 12.75904111285579 0.00014985 deg
node 278.2954790115685 1.3907e-05 deg
peri 285.8743060186079 0.0002154 deg
M 45.97576198740993 0.00086537 deg
tp 2459348.939615435078
(2021-May-14.43961543)
0.00087621 TDB
period 372.4079319894832
1.02
0.00014888
4.076e-07
d
yr
n .9666818804766122 3.8645e-07 deg/d
Q 1.224985577553114 3.2647e-07 au
  Orbit Determination Parameters
   # obs. used (total)      79  
   data-arc span      357 days  
   first obs. used      2013-12-31  
   last obs. used      2014-12-23  
   planetary ephem.      DE441  
   SB-pert. ephem.      SB441-N16  
   condition code      2  
   norm. resid. RMS      .45636  
   source      ORB  
   producer      Otto Matic  
   solution date      2021-Apr-15 09:10:27  

Additional Information
 Earth MOID = .0316229 au 
 Jupiter MOID = 3.77639 au 
 T_jup = 5.978 
[ show covariance matrix ]

Ephemeris | Orbit Diagram | Orbital Elements | Mission Design | Physical Parameters | Close-Approach Data ]

Physical Parameter Table
Parameter Symbol Value Units Sigma Reference Notes
absolute magnitude H 25.0   n/a MPO279500  

[ show close-approach data ]
Ephemeris | Orbit Diagram | Orbital Elements | Mission Design | Physical Parameters | Close-Approach Data ]
ABOUT SSD CREDITS/AWARDS PRIVACY/COPYRIGHT GLOSSARY LINKS
FirstGov 2021-Sep-17 11:45 UT
(server date/time)  
NASA Home Page
Site Manager:   Ryan S. Park
Webmaster  Alan B. Chamberlin